| time (UTC) | temp F | wind direction | speed MPH | gust MPH | rain 1hr in | rain 24hr in | rain mn in | humidity % | barometer mb |
| 20260905043034 | 57 | 0.0 | 0.0 | 0.01 | 0.25 | 0.16 | 92 | 1015.7 | |
| 20260905041525 | 57 | 0.0 | 0.0 | 0.01 | 0.25 | 0.16 | 92 | 1015.6 | |
| 20260905040033 | 58 | 0.0 | 0.0 | 0.01 | 0.24 | 0.15 | 91 | 1015.7 | |
| 20260905034513 | 58 | 0.0 | 0.0 | 0.07 | 0.24 | 0.15 | 91 | 1015.6 | |
| 20260905033005 | 58 | 0.0 | 0.0 | 0.07 | 0.26 | 0.15 | 91 | 1015.5 | |
| 20260905031505 | 58 | 0.0 | 0.0 | 0.07 | 0.29 | 0.15 | 90 | 1015.3 | |
| 20260905030007 | 59 | 0.0 | 0.0 | 0.06 | 0.28 | 0.14 | 87 | 1015.1 | |
| 20260905024508 | 59 | 0.0 | 0.0 | 0.00 | 0.22 | 0.08 | 84 | 1014.9 | |
| 20260905023006 | 59 | 0.0 | 0.0 | 0.00 | 0.22 | 0.08 | 85 | 1014.9 | |
| 20260905021507 | 60 | 0.0 | 0.0 | 0.00 | 0.22 | 0.08 | 84 | 1014.9 | |
| 20260905020007 | 60 | 0.0 | 0.0 | 0.00 | 0.22 | 0.08 | 84 | 1014.7 | |
| 20260905014504 | 60 | 0.0 | 0.0 | 0.00 | 0.22 | 0.08 | 84 | 1014.5 | |
| 20260905013004 | 61 | 0.0 | 0.0 | 0.00 | 0.22 | 0.08 | 82 | 1014.5 | |
| 20260905011507 | 62 | 0.0 | 0.0 | 0.00 | 0.24 | 0.08 | 81 | 1014.3 | |
| 20260905010008 | 62 | 0.0 | 0.0 | 0.00 | 0.26 | 0.08 | 81 | 1014.2 | |
| 20260905004513 | 62 | 0.0 | 0.0 | 0.00 | 0.26 | 0.08 | 81 | 1014.0 | |
| 20260905003010 | 61 | 0.0 | 0.0 | 0.00 | 0.27 | 0.08 | 82 | 1013.9 | |
| 20260905001510 | 61 | 0.0 | 0.0 | 0.00 | 0.27 | 0.08 | 80 | 1013.8 | |
| 20260905000011 | 61 | 0.0 | 0.0 | 0.00 | 0.27 | 0.08 | 80 | 1013.8 | |
| 20260904234517 | 61 | 0.0 | 0.0 | 0.00 | 0.28 | 0.08 | 79 | 1013.6 | |
| 20260904233009 | 62 | 0.0 | 0.0 | 0.00 | 0.29 | 0.08 | 78 | 1013.7 | |
| 20260904231509 | 62 | 0.0 | 0.0 | 0.00 | 0.29 | 0.08 | 79 | 1013.6 | |
| 20260904230012 | 61 | 0.0 | 0.0 | 0.00 | 0.29 | 0.08 | 80 | 1013.6 | |
| 20260904224512 | 61 | 0.0 | 0.0 | 0.00 | 0.30 | 0.08 | 79 | 1013.4 | |
| 20260904223012 | 61 | 0.0 | 0.0 | 0.00 | 0.30 | 0.08 | 80 | 1013.5 | |
| 20260904221511 | 61 | 0.0 | 0.0 | 0.00 | 0.30 | 0.08 | 79 | 1013.5 | |
| 20260904220012 | 61 | 0.0 | 0.0 | 0.00 | 0.32 | 0.08 | 78 | 1013.5 | |
| 20260904214511 | 62 | 0.0 | 0.0 | 0.00 | 0.34 | 0.08 | 78 | 1013.6 | |
| 20260904213015 | 61 | 0.0 | 0.0 | 0.00 | 0.35 | 0.08 | 81 | 1013.4 | |
| 20260904211514 | 61 | 0.0 | 0.0 | 0.00 | 0.37 | 0.08 | 84 | 1013.3 | |
| 20260904210016 | 60 | 0.0 | 0.0 | 0.00 | 0.39 | 0.08 | 86 | 1013.2 | |
| 20260904204513 | 59 | 0.0 | 0.0 | 0.01 | 0.43 | 0.08 | 91 | 1013.2 | |
| 20260904203021 | 58 | 0.0 | 0.0 | 0.01 | 0.47 | 0.08 | 92 | 1013.2 | |
| 20260904201517 | 58 | 0.0 | 0.0 | 0.01 | 0.47 | 0.08 | 92 | 1013.3 | |
| 20260904200018 | 57 | 0.0 | 0.0 | 0.01 | 0.47 | 0.08 | 92 | 1013.5 | |
| 20260904194519 | 57 | 0.0 | 0.0 | 0.00 | 0.46 | 0.07 | 91 | 1013.6 | |
| 20260904193023 | 58 | 0.0 | 0.0 | 0.00 | 0.46 | 0.07 | 90 | 1013.4 | |
| 20260904191519 | 57 | 0.0 | 0.0 | 0.00 | 0.46 | 0.07 | 91 | 1013.4 | |
| 20260904190021 | 57 | 0.0 | 0.0 | 0.00 | 0.46 | 0.07 | 91 | 1013.3 | |
| 20260904184524 | 57 | 0.0 | 0.0 | 0.00 | 0.46 | 0.07 | 93 | 1013.1 | |
| 20260904183013 | 57 | 0.0 | 0.0 | 0.00 | 0.46 | 0.07 | 95 | 1013.1 | |
| 20260904181540 | 57 | 0.0 | 0.0 | 0.00 | 0.46 | 0.07 | 96 | 1013.1 | |
| 20260904180008 | 56 | 0.0 | 0.0 | 0.00 | 0.46 | 0.07 | 97 | 1013.0 | |
| 20260904174507 | 56 | 0.0 | 0.0 | 0.00 | 0.47 | 0.07 | 97 | 1013.0 | |
| 20260904173018 | 56 | 0.0 | 0.0 | 0.00 | 0.47 | 0.07 | 97 | 1012.8 | |
| 20260904171516 | 56 | 0.0 | 0.0 | 0.00 | 0.48 | 0.07 | 97 | 1012.6 | |
| 20260904170024 | 56 | 0.0 | 0.0 | 0.00 | 0.48 | 0.07 | 97 | 1012.5 | |
| 20260904164504 | 56 | 0.0 | 0.0 | 0.00 | 0.49 | 0.07 | 97 | 1012.5 | |
| 20260904163007 | 56 | 0.0 | 0.0 | 0.00 | 0.49 | 0.07 | 97 | 1012.4 | |
| 20260904161514 | 56 | 0.0 | 0.0 | 0.00 | 0.49 | 0.07 | 97 | 1012.4 | |
| 20260904160021 | 56 | 0.0 | 0.0 | 0.00 | 0.49 | 0.07 | 97 | 1012.3 | |
| 20260904154541 | 55 | 0.0 | 0.0 | 0.00 | 0.49 | 0.07 | 97 | 1012.3 | |
| 20260904153010 | 55 | 0.0 | 0.0 | 0.00 | 0.49 | 0.07 | 97 | 1012.2 | |
| 20260904151513 | 55 | 0.0 | 0.0 | 0.00 | 0.49 | 0.07 | 97 | 1012.1 | |
| 20260904150020 | 54 | 0.0 | 0.0 | 0.00 | 0.49 | 0.07 | 97 | 1012.0 | |
| 20260904144524 | 54 | 0.0 | 0.0 | 0.00 | 0.49 | 0.07 | 97 | 1011.9 | |
| 20260904143035 | 54 | 0.0 | 0.0 | 0.00 | 0.49 | 0.07 | 97 | 1011.7 | |
| 20260904141508 | 54 | 0.0 | 0.0 | 0.00 | 0.49 | 0.07 | 97 | 1011.5 | |
| 20260904140033 | 54 | 0.0 | 0.0 | 0.00 | 0.50 | 0.07 | 97 | 1011.2 | |
| 20260904134526 | 54 | 0.0 | 0.0 | 0.00 | 0.50 | 0.07 | 96 | 1011.0 | |
| 20260904133031 | 54 | 0.0 | 0.0 | 0.00 | 0.50 | 0.07 | 96 | 1010.9 | |
| 20260904131531 | 54 | 0.0 | 0.0 | 0.00 | 0.50 | 0.07 | 96 | 1010.8 | |
| 20260904130011 | 54 | 0.0 | 0.0 | 0.00 | 0.50 | 0.07 | 96 | 1010.7 | |
| 20260904124517 | 54 | 0.0 | 0.0 | 0.00 | 0.50 | 0.07 | 96 | 1010.8 | |
| 20260904123032 | 54 | 0.0 | 0.0 | 0.00 | 0.50 | 0.07 | 96 | 1010.6 | |
| 20260904121527 | 54 | 0.0 | 0.0 | 0.00 | 0.50 | 0.07 | 96 | 1010.4 | |
| 20260904120039 | 54 | 0.0 | 0.0 | 0.00 | 0.50 | 0.07 | 96 | 1010.3 | |
| 20260904114517 | 54 | 0.0 | 0.0 | 0.00 | 0.50 | 0.07 | 96 | 1010.1 | |
| 20260904113019 | 54 | 0.0 | 0.0 | 0.00 | 0.50 | 0.07 | 96 | 1010.0 | |
| 20260904111526 | 54 | 0.0 | 0.0 | 0.00 | 0.50 | 0.07 | 96 | 1010.0 | |
| 20260904110031 | 54 | 0.0 | 0.0 | 0.00 | 0.50 | 0.07 | 96 | 1010.0 | |
| 20260904104547 | 54 | 0.0 | 0.0 | 0.00 | 0.50 | 0.07 | 96 | 1010.0 | |
| 20260904103022 | 54 | 0.0 | 0.0 | 0.00 | 0.50 | 0.07 | 96 | 1010.0 | |
| 20260904101524 | 54 | 0.0 | 0.0 | 0.00 | 0.51 | 0.07 | 95 | 1009.9 | |
| 20260904100032 | 54 | 0.0 | 0.0 | 0.01 | 0.51 | 0.07 | 95 | 1009.9 | |
| 20260904094534 | 54 | 0.0 | 0.0 | 0.01 | 0.52 | 0.07 | 95 | 1009.9 | |
| 20260904093031 | 54 | 0.0 | 0.0 | 0.02 | 0.52 | 0.07 | 95 | 1009.8 | |
| 20260904091522 | 54 | 0.0 | 0.0 | 0.02 | 0.52 | 0.07 | 95 | 1009.8 | |
| 20260904090004 | 54 | 0.0 | 0.0 | 0.02 | 0.51 | 0.06 | 95 | 1009.8 | |
| 20260904084504 | 54 | 0.0 | 0.0 | 0.03 | 0.51 | 0.06 | 95 | 1009.8 | |
| 20260904083017 | 54 | 0.0 | 0.0 | 0.02 | 0.50 | 0.05 | 95 | 1009.8 | |
| 20260904081516 | 54 | 0.0 | 0.0 | 0.03 | 0.50 | 0.05 | 95 | 1009.8 | |
| 20260904080033 | 54 | 0.0 | 0.0 | 0.04 | 0.49 | 0.04 | 95 | 1009.9 | |
| 20260904074506 | 54 | 0.0 | 0.0 | 0.05 | 0.48 | 0.03 | 95 | 1009.7 | |
| 20260904073011 | 54 | 0.0 | 0.0 | 0.07 | 0.49 | 0.03 | 95 | 1009.6 | |
| 20260904071511 | 55 | 0.0 | 0.0 | 0.07 | 0.48 | 0.02 | 95 | 1009.5 | |
| 20260904070023 | 55 | 0.0 | 0.0 | 0.06 | 0.46 | 0.00 | 95 | 1009.6 | |
| 20260904064529 | 55 | 0.0 | 0.0 | 0.05 | 0.44 | 0.44 | 95 | 1009.7 | |
| 20260904063012 | 55 | 0.0 | 0.0 | 0.04 | 0.42 | 0.42 | 95 | 1009.6 | |
| 20260904061510 | 55 | 0.0 | 0.0 | 0.04 | 0.41 | 0.41 | 95 | 1009.7 | |
| 20260904060016 | 55 | 0.0 | 0.0 | 0.03 | 0.40 | 0.40 | 95 | 1009.7 | |
| 20260904054530 | 55 | 0.0 | 0.0 | 0.02 | 0.39 | 0.39 | 95 | 1009.9 | |
| 20260904053029 | 55 | 0.0 | 0.0 | 0.01 | 0.38 | 0.38 | 95 | 1010.1 | |
| 20260904051508 | 55 | 0.0 | 0.0 | 0.00 | 0.37 | 0.37 | 95 | 1010.0 | |
| 20260904050013 | 55 | 0.0 | 0.0 | 0.00 | 0.37 | 0.37 | 94 | 1009.9 | |
| 20260904044522 | 55 | 0.0 | 0.0 | 0.00 | 0.37 | 0.37 | 94 | 1009.8 |